Chippewa, MI

1:28 AM EST on December 11, 2019 (GMT -0500)
Chippewa County International

Weather History for KCIU - October, 2019

Change the Weather History Date:

Friday, October 18, 2019

  Actual Average Record
Temperature  
Mean Temperature 39 °F -  
Max Temperature 50 °F 55 °F 69 °F (1991)
Min Temperature 28 °F 33 °F 21 °F (2018)
Degree Days  
Heating Degree Days 26    
Moisture  
Dew Point 33 °F    
Average Humidity 83    
Maximum Humidity 100    
Minimum Humidity 57    
Precipitation  
Precipitation 0.00 in - - ()
Sea Level Pressure  
Sea Level Pressure 30.06 in    
Wind  
Wind Speed 4 mph ()    
Max Wind Speed 13 mph    
Max Gust Speed 18 mph    
Visibility 10.0 miles    
Events      
Averages and records for this station are not official NWS values.
T = Trace of Precipitation, MM = Missing Value Source: Averaged Metar Reports

Daily Weather History Graph

Daily Weather History Graph

Search for Another Location

Airport or City:

Astronomy

Oct. 18, 2019 Rise Set
Actual Time 7:58 AM EDT 6:46 PM EDT
Civil Twilight 7:28 AM EDT 7:16 PM EDT
Nautical Twilight 6:53 AM EDT 7:51 PM EDT
Astronomical Twilight 6:18 AM EDT 8:26 PM EDT
Moon 9:49 PM EDT (10/18) 12:43 PM EDT (10/18)
Length of Visible Light 11h 48m
Length of Day
10h 47m
Waning Gibbous, 79% of the Moon is Illuminated
Oct 18
Waning Gibbous
Oct 21
Last Quarter
Oct 27
New
Nov 4
First Quarter
Nov 12
Full

Hourly Weather History & Observations

Time (EDT) Temp. Windchill Dew Point Humidity Pressure Visibility Wind Dir Wind Speed Gust Speed Precip Events Conditions
12:56 AM 36.0 °F 33.3 °F 36.0 °F 100% 30.02 in 10.0 mi West 3.5 mph - N/A   Overcast
1:56 AM 34.0 °F 31.0 °F 33.1 °F 96% 30.05 in 10.0 mi NNW 3.5 mph - N/A   Overcast
2:56 AM 32.0 °F 28.7 °F 30.9 °F 96% 30.06 in 10.0 mi NNE 3.5 mph - N/A   Partly Cloudy
3:56 AM 30.0 °F 26.5 °F 28.9 °F 96% 30.06 in 10.0 mi East 3.5 mph - N/A   Clear
4:56 AM 28.9 °F - 28.0 °F 96% 30.07 in 10.0 mi Calm Calm - N/A   Clear
5:56 AM 28.0 °F 22.8 °F 27.0 °F 96% 30.10 in 10.0 mi East 4.6 mph - N/A   Clear
6:56 AM 28.0 °F 21.7 °F 27.0 °F 96% 30.10 in 10.0 mi East 5.8 mph - N/A   Clear
7:56 AM 28.0 °F 24.2 °F 27.0 °F 96% 30.10 in 10.0 mi ESE 3.5 mph - N/A   Clear
8:56 AM 33.1 °F 28.7 °F 30.0 °F 89% 30.11 in 10.0 mi East 4.6 mph - N/A   Clear
9:56 AM 37.0 °F 32.4 °F 30.9 °F 79% 30.12 in 10.0 mi East 5.8 mph - N/A   Clear
10:56 AM 39.0 °F 35.7 °F 30.0 °F 70% 30.12 in 10.0 mi ESE 4.6 mph - N/A   Clear
11:56 AM 41.0 °F 39.0 °F 30.9 °F 67% 30.11 in 10.0 mi Variable 3.5 mph - N/A   Clear
12:56 PM 44.1 °F 40.8 °F 33.1 °F 65% 30.09 in 10.0 mi SE 5.8 mph - N/A   Partly Cloudy
1:56 PM 46.0 °F 43.9 °F 34.0 °F 63% 30.07 in 10.0 mi Variable 4.6 mph - N/A   Clear
2:56 PM 50.0 °F - 35.1 °F 57% 30.05 in 10.0 mi WSW 6.9 mph 18.4 mph N/A   Mostly Cloudy
3:56 PM 50.0 °F - 36.0 °F 59% 30.03 in 10.0 mi SW 4.6 mph - N/A   Scattered Clouds
4:56 PM 50.0 °F - 36.0 °F 59% 30.02 in 10.0 mi SW 5.8 mph - N/A   Scattered Clouds
5:56 PM 46.9 °F - 37.0 °F 68% 30.01 in 10.0 mi SSW 4.6 mph - N/A   Clear
6:56 PM 43.0 °F 41.3 °F 37.9 °F 82% 30.02 in 10.0 mi South 3.5 mph - N/A   Clear
7:56 PM 39.0 °F 34.0 °F 36.0 °F 89% 30.02 in 10.0 mi SSE 6.9 mph - N/A   Clear
8:56 PM 37.9 °F 33.5 °F 36.0 °F 93% 30.02 in 10.0 mi SE 5.8 mph - N/A   Clear
9:56 PM 39.0 °F 34.0 °F 36.0 °F 89% 30.01 in 10.0 mi SE 6.9 mph - N/A   Clear
10:56 PM 41.0 °F 33.9 °F 37.9 °F 89% 29.99 in 10.0 mi SE 12.7 mph - N/A   Clear
11:56 PM 41.0 °F 34.3 °F 39.0 °F 93% 29.98 in 10.0 mi SE 11.5 mph - N/A   Clear